This is the latest recevied weather packets stored in our database for station/object N9XRG. If no packets are shown the sender has not sent any weather packets the latest 1 day(s).
| Time | Temp. | Humidity | Pressure | Rain* | Wind** | Luminosity | Snow |
|---|---|---|---|---|---|---|---|
| 1778034928 | 7.22° C | 95% | 1009.5 hPa | 0 mm | - | 0 W/m² | - |
| 1778034626 | 7.22° C | 94% | 1009.3 hPa | 0 mm | - | 0 W/m² | - |
| 1778034323 | 7.22° C | 94% | 1009.4 hPa | 0 mm | - | 0 W/m² | - |
| 1778033718 | 7.22° C | 94% | 1009.3 hPa | 0 mm | - | 0 W/m² | - |
| 1778032810 | 7.22° C | 93% | 1009.5 hPa | 0 mm | - | 0 W/m² | - |
| 1778031597 | 7.22° C | 92% | 1009.4 hPa | 0 mm | - | 0 W/m² | - |
| 1778031295 | 7.78° C | 91% | 1009.4 hPa | 0 mm | - | 0 W/m² | - |
| 1778030991 | 7.78° C | 90% | 1009.5 hPa | 0 mm | - | 0 W/m² | - |
| 1778030688 | 7.78° C | 90% | 1009.3 hPa | 0 mm | - | 0 W/m² | - |
| 1778030385 | 7.78° C | 88% | 1009.2 hPa | 0.51 mm | - | 0 W/m² | - |
| 1778030082 | 7.78° C | 89% | 1009.1 hPa | 0.51 mm | - | 0 W/m² | - |
| 1778029779 | 7.78° C | 89% | 1008.9 hPa | 0 mm | - | 0 W/m² | - |
| 1778029478 | 8.33° C | 87% | 1008.7 hPa | 0 mm | - | 0 W/m² | - |
| 1778029173 | 8.33° C | 86% | 1008.6 hPa | 0 mm | - | 0 W/m² | - |
| 1778028872 | 8.33° C | 90% | 1008.7 hPa | 0 mm | - | 0 W/m² | - |
| 1778028265 | 8.89° C | 95% | 1008.9 hPa | 0.51 mm | - | 1 W/m² | - |
| 1778027657 | 8.89° C | 95% | 1008.7 hPa | 1.27 mm | - | 1 W/m² | - |
| 1778027354 | 8.89° C | 95% | 1008.6 hPa | 1.27 mm | - | 3 W/m² | - |
| 1778027050 | 8.89° C | 95% | 1009.1 hPa | 1.27 mm | - | 3 W/m² | - |
| 1778026140 | 8.89° C | 95% | 1008.7 hPa | 1.27 mm | - | 7 W/m² | - |
| 1778025534 | 8.89° C | 94% | 1008.7 hPa | 1.78 mm | - | 12 W/m² | - |
| 1778025232 | 8.89° C | 94% | 1008.7 hPa | 2.29 mm | - | 15 W/m² | - |
| 1778024021 | 9.44° C | 94% | 1008.6 hPa | 1.27 mm | - | 17 W/m² | - |
| 1778023718 | 9.44° C | 93% | 1008.6 hPa | 1.27 mm | - | 21 W/m² | - |
| 1778023416 | 9.44° C | 93% | 1008.5 hPa | 0.51 mm | - | 24 W/m² | - |
* Rain latest hour (hover to see other rain measurements)
** Current wind speed in m/s (hover to see current wind gust speed)